Index of /download/artattach

[ICO]NameLast modifiedSizeDescription

[PARENTDIR]Parent Directory  -  
[   ]1-panev.xls2015-02-11 14:39 10K 
[   ]7-vr_kustod_depo2015.pdf2015-02-21 17:24 609K 
[   ]8-vr_recepcni_depo2015.pdf2015-02-21 17:24 614K 
[   ]9-dopis_sousedum_final_podpisy.pdf2015-03-05 08:17 631K 
[   ]10-arabfest-2015-hlavni-plakat-nahled.pdf2015-03-24 15:20 1.8M 
[   ]10-arabfest 2015 - hlavni plakat nahled.pdf2015-03-24 15:10 1.8M 
[   ]11-spravce-objektu-depo2015.pdf2015-03-31 00:31 394K 
[IMG]12-jaro2015barva300dpi.png2015-04-06 01:26 630K 
[   ]13-suska-a4-nahled.pdf2015-05-12 16:41 1.9M 
[   ]14-vr-uklizecka-depo2015.pdf2015-05-18 18:34 418K 
[   ]15-domus-plzen-doprovodny-program.docx2015-05-25 10:12 485K 
[   ]18-workshop-1-skoly-fotoalbum.pdf2015-05-27 16:24 559K 
[   ]20-final-suska-doprovodny-program.pdf2015-05-27 16:59 7.3M 
[   ]21-domus-plzen-doprovodny-program.pdf2015-05-27 17:05 635K 
[   ]22-primestsky-tabor-v-depo2015.pdf2015-06-09 10:39 766K 
[   ]23-prihlaska.docx2015-06-09 10:38 92K 
[   ]24-2-domus.docx2015-06-23 17:50 200K 
[   ]25-2-domus.docx2015-06-23 17:53 0  
[   ]26-3-restart.docx2015-06-23 18:13 229K 
[   ]27-stroj-casu-obecne-programy.docx2015-06-30 14:08 292K 
[   ]28-22-primestsky-tabor-v-depo2015.pdf2015-07-14 17:01 766K 
[   ]29-23-prihlaska.docx2015-07-14 17:02 92K 
[   ]30-tz-kino-kabaret-plzen-2015-cz-and-eng.docx2015-08-24 10:45 43K 
[   ]32-plzen-2015-cj.pdf2015-09-18 15:32 211K 
[   ]33-vr-kustod-depo2015.pdf2015-09-29 16:07 485K 
[   ]34-vr-lektor-depo2015.pdf2015-09-29 16:07 484K 
[   ]36-festival-depo2015-.pdf2015-10-20 16:29 85K 
[   ]37-raj-mezi-ctyrmi-rekami.docx2015-10-22 15:38 306K 
[   ]38-spravce-objektu-depo2015.pdf2015-11-12 09:47 394K 
[   ]39-manager-marketingu.pdf2015-11-27 15:24 398K 
[   ]40-koordinator-coworkingu.pdf2015-11-27 15:24 406K 
[   ]42-manager-marketingu.pdf2015-11-27 15:28 398K 
[   ]43-koordinator-coworkingu.pdf2015-11-27 15:28 406K 
[   ]44-prihlaska-makerspace.pdf2015-12-08 23:01 144K 
[   ]45-manager-marketingu.pdf2015-12-16 14:46 399K 
[   ]46-vr-pruvodce-depo2015.pdf2016-01-18 17:17 486K 
[   ]48-trik-digitalni-hriste-pro-deti-1-stupen.pdf2016-02-04 15:31 505K 
[   ]49-trik-digitalni-hriste-pro-deti-2-stupen.pdf2016-02-04 15:29 582K 
[   ]50-makerspace9-fin-s.pdf2016-02-23 17:58 2.4M 
[   ]51-polep-80x110-1-1-.pdf2016-02-26 11:32 815K 
[   ]52-evropsky-den-sousedu-2016-letaka5.pdf2016-04-01 23:13 746K 
[   ]53-vr-lektor-depo2015.pdf2016-04-05 15:01 490K 
[   ]54-vr-kustod-depo2015.pdf2016-04-05 15:01 420K 
[   ]55-vr-kustod-depo2015.pdf2016-04-06 09:09 420K 
[   ]56-vr-lektor-depo2015.pdf2016-04-06 09:10 490K 
[   ]57-vr-kustod-depo2015.pdf2016-04-06 09:11 420K 
[   ]58-vr-lektor-depo2015.pdf2016-04-06 09:11 490K 
[   ]60-rastr-depo2015.zip2016-04-19 11:47 15M 
[   ]61-razitko-plzen-2015.zip2016-04-19 11:48 3.1M 
[   ]62-logo-depo2015.rar2016-04-19 11:48 1.4M 
[   ]63-marketingovy-manual-depo2015.pdf2016-04-19 11:49 1.6M 
[   ]64-specialista-ticketingu-kd-peklo.pdf2016-04-28 11:35 543K 
[   ]65-spravce-depo2015.pdf2016-04-27 19:25 540K 
[   ]66-diky-ameriko-pozvanka.pdf2016-04-27 19:36 923K 
[   ]67-eds-blank-a4.pdf2016-04-28 10:53 556K 
[   ]68-pruvodce-vystavou-dobrodruzi.pdf2016-05-01 20:51 446K 
[   ]71-prihlaska.docx2016-05-08 19:15 91K 
[   ]73-prihlaska.docx2016-05-08 19:16 91K 
[   ]74-prihlaska.docx2016-05-08 19:16 91K 
[   ]80-prihlaska.docx2016-05-17 07:35 91K 
[   ]81-prihlaska.docx2016-05-17 07:36 91K 
[   ]83-prihlaska.docx2016-05-17 07:36 91K 
[   ]85-open-up-2016-program.docx2016-05-18 14:25 62K 
[   ]87-depo2015-katalog-prostor.pdf2016-06-07 08:20 5.7M 
[   ]89-depo2015-katalog-prostor-filmova-produkce.pdf2016-06-07 16:23 11M 
[   ]92-62-logo-depo2015.rar2016-06-07 16:36 1.4M 
[   ]93-marketingovy-manual-depo2015.pdf2016-06-07 16:38 1.6M 
[   ]94-60-rastr-depo2015.zip2016-06-07 16:38 15M 
[   ]95-61-razitko-plzen-2015.zip2016-06-07 16:39 3.1M 
[   ]96-depo2015-provozni-rad-03052016.pdf2016-06-14 10:46 133K 
[   ]100-depo2015-provozni-rad-03052016.pdf2016-06-14 11:19 133K 
[   ]101-notarsky-zapis-compressed.pdf2016-06-22 13:57 2.9M 
[   ]102-depo2015-katalog-prostor.pdf2016-06-27 15:53 5.7M 
[   ]107-vyberove-rizeni-kavarna-depo2015.pdf2016-07-19 14:15 242K 
[   ]108-p1-pachtovni-smlouva-kavarna-depo2015.docx2016-07-19 14:16 30K 
[IMG]109-p3-nakres-kavarna.png2016-07-19 14:16 323K 
[   ]110-p2-program.xlsx2016-07-19 14:17 15K 
[   ]111-vedouci-recepce-depo2015.pdf2016-07-26 20:22 545K 
[   ]112-makerspace-program-zari-leden2017.pdf2016-08-19 10:39 581K 
[   ]113-makerspace-program-zari-leden2017.pdf2016-08-19 10:41 581K 
[   ]115-bm-plzen2015-treffpunkt-program-mail.pdf2016-10-03 13:25 336K 
[   ]116-bm-plzen2015-treffpunkt-program-mail.pdf2016-10-03 13:27 336K 
[   ]117-bm-plzen2015-treffpunkt-program-mail.pdf2016-10-12 13:02 336K 
[   ]118-bm-plzen2015-treffpunkt-program-mail.pdf2016-10-03 13:29 336K 
[   ]119-prihlaska.docx2016-10-04 11:00 91K 
[   ]120-prihlaska.docx2016-10-04 11:00 91K 
[   ]121-1-zd-dodavka-modularnich-objektu-pro-depo2015.pdf2016-10-04 14:00 2.6M 
[   ]122-2-priloha-1-zavazny-vzor-kupni-smlouvy.docx2016-10-06 08:50 52K 
[   ]123-3-priloha-2-a-so-01-nakres-umisteni-modularnich-objektu.pdf2016-10-06 08:50 2.0M 
[   ]124-4-priloha-2-b-so-02-nakres-umisteni-modularnich-objektu.pdf2016-10-06 08:50 2.9M 
[   ]125-5-priloha-3-a-kryci-list.docx2016-10-06 08:50 21K 
[   ]126-6-priloha-3-b-polozkovy-rozpocet.xlsx2016-10-06 08:51 14K 
[   ]127-7-priloha-4-cp-kvalifikacni-predpoklady.docx2016-10-06 08:51 20K 
[   ]128-8-priloha-5-cp-ekonomicka-zpusobilost.docx2016-10-06 08:51 15K 
[   ]129-9-priloha-6-technicky-popis-modulu.pdf2016-10-06 08:51 188K 
[   ]130-vyzva-k-podani-nabidky.pdf2016-10-04 14:13 226K 
[   ]131-rozhodnuti-o-vylouceni-uchazece.pdf2016-10-27 11:59 634K 
[   ]132-ma-plast-pet-ms.pdf2016-10-31 17:15 395K 
[   ]133-ma-plast-pet-1-st-zs.pdf2016-10-31 17:15 400K 
[   ]134-ma-plast-pet-2-st-zs.pdf2016-10-31 17:16 458K 
[   ]135-ma-plast-pet-ss.pdf2016-10-31 17:16 579K 
[   ]136-ma-plast-plast-flow-tvorba-ms-brouk.pdf2016-10-31 17:16 557K 
[   ]137-ma-plast-plast-flow-tvorba-ms-mandaly.pdf2016-10-31 17:17 1.0M 
[   ]138-ma-plast-plast-flow-1-st-zs.pdf2016-10-31 17:17 644K 
[   ]139-ma-plast-plast-flow-2-st-zs.pdf2016-10-31 17:17 937K 
[   ]140-ma-plast-plast-flow-ss.pdf2016-10-31 17:18 699K 
[   ]141-oznameni-o-vyberu-nejvhodnejsi-nabidky.pdf2016-11-02 08:58 681K 
[   ]142-prihlaska-pro-studenty-fdu-ls-zcu.pdf2016-11-02 11:28 104K 
[   ]143-prihlaska-ke-clenstvi-pro-verejnost.pdf2016-12-08 10:13 203K 
[   ]147-produkcni-programu-depo2015-1-.pdf2016-12-23 14:24 261K 
[   ]147-produkcni-programu-depo2015.pdf2016-12-13 16:14 260K 
[   ]148-nabidka-pronajmu-depo2015-kontejnery.pdf2017-06-22 08:10 2.2M 
[   ]148-nabidka-pronajmu-depo2015-modularni-objekty.pdf2016-12-22 14:20 2.7M 
[   ]149-nabidka-pronajmu-depo2015-modularni-objekty.pdf2016-12-22 14:27 2.7M 
[   ]150-provozni-rad-coworkingdepo2015-2017.pdf2017-01-03 13:30 388K 
[   ]155-asistentka-reditele-hr-manager.pdf2017-01-20 14:50 297K 
[   ]156-manazer-cesko-bavorskych-vztahu.pdf2017-01-20 14:50 260K 
[   ]157-155-asistentka-reditele-hr-manager.pdf2017-01-24 10:29 297K 
[   ]158-156-manazer-cesko-bavorskych-vztahu.pdf2017-01-24 10:29 260K 
[   ]159-ekotopfilm-program-plzen-210x297.pdf2017-02-16 20:14 261K 
[   ]160-blik-blik.pdf2017-02-23 13:39 339K 
[   ]160-brozura-a3-4.pdf2017-03-09 09:09 1.1M 
[   ]161-145-prihlaska-ke-clenstvi-pro-verejnost.pdf2017-03-01 15:04 203K 
[   ]162-144-prihlaska-ke-clenstvi-pro-studenty-fdu-ls-zcu.pdf2017-03-01 15:05 104K 
[   ]163-sales-and-event-specialist.pdf2017-03-01 20:16 258K 
[   ]166-worksheet-1-.pdf2017-03-09 21:09 1.0M 
[   ]166-worksheet.pdf2017-03-07 21:04 1.0M 
[   ]167-worksheet-1-.pdf2017-03-09 21:10 1.0M 
[   ]167-worksheet.pdf2017-03-07 21:06 1.0M 
[   ]168-harmonogram-start-up-show-5883.pdf2017-03-15 17:39 283K 
[   ]170-harmonogram-start-up-show-5883.pdf2017-03-15 17:45 283K 
[   ]171-harmonogram-start-up-show-5883.pdf2017-03-15 17:47 283K 
[   ]172-eds-a5.pdf2017-04-21 11:30 2.0M 
[   ]175-prihlaska.docx2017-04-21 11:53 96K 
[   ]176-prihlaska.docx2017-04-21 11:54 95K 
[   ]177-prihlaska.docx2017-04-21 11:54 95K 
[   ]178-prihlaska.docx2017-04-21 11:55 95K 
[   ]179-brigada-v-depo2015.pdf2017-05-03 12:58 69K 
[   ]181-report-rok-2016.pdf2017-05-12 13:38 70K 
[   ]182-provozni-reditel-depo2015.pdf2017-06-07 15:24 76K 
[   ]184-ilovepdf-jpg-to-pdf.pdf2017-06-13 20:27 3.2M 
[   ]185-ilovepdf-jpg-to-pdf.pdf2017-06-13 20:28 3.2M 
[   ]186-ilovepdf-jpg-to-pdf.pdf2017-06-13 20:29 3.2M 
[   ]187-ilovepdf-jpg-to-pdf.pdf2017-06-13 20:30 3.2M 
[   ]188-ilovepdf-jpg-to-pdf.pdf2017-06-13 20:32 3.2M 
[   ]189-ilovepdf-jpg-to-pdf.pdf2017-06-13 20:32 3.2M 
[   ]190-ilovepdf-jpg-to-pdf.pdf2017-06-13 20:33 3.2M 
[   ]191-ilovepdf-jpg-to-pdf.pdf2017-06-13 20:34 3.2M 
[   ]192-ilovepdf-jpg-to-pdf.pdf2017-06-13 20:35 3.2M 
[   ]193-ilovepdf-jpg-to-pdf.pdf2017-06-13 20:36 3.2M 
[   ]194-plzen-2015-vyrocni-zprava-2016-vcetne-priloh.pdf2017-07-18 10:33 4.9M 
[   ]195-depo-prezentace-nj.pptx2017-08-10 08:38 8.9M 
[   ]196-depo2015-nabidka-eventu-a-sluzeb.pdf2017-08-10 09:25 5.6M 
[   ]196-depo2015-nabidka-prostor-2019.pptx2019-04-03 10:33 2.5M 
[   ]197-nabidka-pronajmu-kancelare-a-ateliery-pv.pdf2017-09-19 09:23 241K 
[   ]198-nabidka-pronajmu-depo2015-kontejnery.pdf2017-08-21 15:10 2.2M 
[   ]200-nabidka-pronajmu-kontejnerove-moduly-pv.pdf2017-09-19 09:26 361K 
[IMG]201-vyzva-nalezato-web.jpg2017-11-01 20:51 824K 
[   ]202-specialista-komunikace.pdf2017-11-29 12:54 94K 
[   ]203-inzer-t-produk-n-depo2015.pdf2018-01-04 10:37 94K 
[IMG]204-0001-6-.jpg2018-03-13 18:53 1.7M 
[IMG]205-0001-5-.jpg2018-03-13 18:54 2.1M 
[   ]206-zad-vac-dokumentace-tisk-barokn-ho-magaz-nu.pdf2018-03-26 15:01 603K 
[   ]207-p1-zd-z-vazn-n-vrh-smlouvy.docx2018-03-26 15:02 125K 
[   ]208-p2-kryc-list.xlsx2018-03-26 15:03 11K 
[   ]209-p3-p-z-kladn-zp-sobilost.docx2018-03-26 15:03 18K 
[   ]210-v-zva-k-pod-n-nab-dky-vzmr-zaji-t-n-tisku-barokn-ho-magaz-nu.pdf2018-03-26 15:20 755K 
[   ]211-0provozn-d-coworkingdepo2015-2018.pdf2018-03-27 13:09 388K 
[   ]214-zad-vac-dokumentace-koordin-tor.pdf2018-03-28 16:08 700K 
[   ]215-p1-specifikace-pln-n-.pdf2018-03-28 16:09 339K 
[   ]216-p1-specifikace-pln-n-baroko-projektov-dost.pdf2018-03-28 16:10 284K 
[   ]217-p2-harmonogram.pdf2018-03-28 16:10 265K 
[   ]218-p3-n-vh-smlouvy-z-vazn-vzor.docx2018-03-28 16:11 608K 
[   ]219-p4-kryc-list.xlsx2018-03-28 16:12 9.6K 
[   ]220-p5-p-z-kladn-zp-sobilost.docx2018-03-28 16:12 18K 
[   ]221-v-zva-k-pod-n-nab-dky-vzmr-poskytov-n-slu-eb-koordin-tora-projektu.pdf2018-03-29 10:11 735K 
[   ]223-editel-ka-programu.pdf2018-04-15 15:17 960K 
[   ]224-projekt-barokn-region.docx2018-04-23 09:37 3.7M 
[   ]225-ozn-men-v-b-ru-nejvhodn-j-nab-dky-euroverlag.pdf2018-04-24 15:13 389K 
[   ]226-p-ihl-ka-t-bor.docx2018-04-27 10:23 61K 
[   ]226-prihlaska-tabor.docx2018-04-27 10:24 61K 
[   ]227-administrativa-a-produkce-ckp.pdf2018-05-17 14:07 93K 
[   ]228-vedouc-recepce-depo2015.pdf2018-06-01 10:34 96K 
[   ]229-ncsd-propozice-sout-e-2018-1-5-.docx2018-06-01 15:14 27K 
[   ]230-ncsd-pr-vodce-2018-1-5-.docx2018-06-01 15:15 16K 
[   ]234-trznice-depo2015-nabidka-upraveno-cerven-2018.pdf2018-06-19 12:58 5.8M 
[   ]235-100py-dopis-pro-skoly.pdf2018-06-19 13:16 657K 
[   ]236-hr-administrator.pdf2018-06-19 13:31 95K 
[   ]237-plakat-nepomuk.pdf2018-06-22 08:55 1.0M 
[   ]238-trznice-depo2015-nabidka-upraveno-cerven-2018.pdf2018-06-27 09:05 5.8M 
[   ]239-provozne-technicky-pracovnik-kd-peklo.pdf2018-07-11 12:46 324K 
[   ]242-provozni-rad-depo2015.docx2018-07-30 11:51 82K 
[   ]243-formular-pro-ucastnika-kurzu-nove.pdf2018-10-05 12:25 418K 
[   ]244-komplet-set-k-prihlasce-sdilene-dilny-2018.pdf2018-10-05 12:25 273K 
[   ]245-prihlaska-k-jednorazovemu-vstupu-2018.pdf2018-10-05 12:26 421K 
[   ]246-prihlaska-makerspace-fdu-ls-zcu.pdf2018-10-05 12:26 226K 
[   ]247-prihlaska-pro-clena-2018-final.pdf2018-10-05 12:26 420K 
[   ]248-open-call-blikblik2019-cz.pdf2018-11-02 13:34 114K 
[   ]249-open-call-blikblik2019-en.pdf2018-11-02 13:34 100K 
[   ]250-zadavaci-dokumentace-multimedialni-obsah-vystavy-za-barokem.pdf2018-11-07 08:58 531K 
[   ]251-p2-objasneni-konceptu-vystavy.pdf2018-11-07 09:02 213K 
[   ]252-p1-specifikace-plneni.xlsx2018-11-07 09:02 13K 
[   ]253-p4-smlouva-o-dilo-zavazny-vzor.doc2018-11-07 09:04 214K 
[   ]254-p3-pudorys-vystavy-za-barokem.pdf2018-11-07 09:01 59K 
[   ]255-p6-cp-zakladni-zpusobilost.pdf2018-11-07 09:04 288K 
[   ]256-p5-kryci-list.xlsx2018-11-07 09:04 11K 
[   ]257-vyzva-k-podani-nabidky.pdf2018-11-07 09:07 649K 
[   ]258-oznameni-vyberu-nejvhodnejsi-nabidky.pdf2018-11-08 14:57 389K 
[   ]260-vyzva-k-podani-nabidky-vzmr-multimedialni-obsah-interaktivni-vystavy-za-barokem-doplneni-16-11-2018.pdf2018-11-17 14:20 414K 
[   ]261-komplet-set-k-prihlasce-sdilene-dilny-2018.pdf2019-05-16 14:43 273K 
[   ]264-prihlaska-makerspace-fdu-ls-zcu.pdf2018-12-18 16:01 226K 
[   ]266-vyrocni-zprava-2017-final-cistopis.docx2019-01-07 12:31 6.1M 
[   ]267-inzerat-produkcni-depo2015.pdf2019-01-14 10:29 95K 
[IMG]268-bistro-cafe-depo-menu-3-9-6.jpg2019-06-05 10:50 59K 
[   ]268-menu-bistro-cafe-depo-10-16-6-19.pdf2019-06-07 14:35 85K 
[   ]268-menu-bistro-cafe-depo-17-23-6-2019.pdf2019-06-14 09:38 88K 
[   ]268-menu-depo-1-5-4-.docx2019-04-01 12:54 38K 
[   ]268-menu-depo-6-05-2019-10-05-2019.pdf2019-05-05 13:56 154K 
[   ]268-menu-depo-8-12-4-.pdf2019-04-09 13:57 217K 
[   ]268-menu-depo-11-15-3.pdf2019-03-09 21:50 168K 
[   ]268-menu-depo-13-5-17-5-.pdf2019-05-14 12:49 223K 
[   ]268-menu-depo-15-19-4-.pdf2019-04-15 13:02 161K 
[   ]268-menu-depo-18-22-3.docx2019-03-18 13:11 42K 
[   ]268-menu-depo-20-24-05-.pdf2019-05-20 14:12 156K 
[   ]268-menu-depo-23-26-4-.pdf2019-04-23 21:01 161K 
[   ]268-menu-depo-25-29-3.pdf2019-03-25 13:17 219K 
[   ]268-menu-depo-29-4-3-5-.pdf2019-04-28 20:36 154K 
[   ]269-blik-blik-2019-seznam-instalaci.pdf2019-03-13 13:05 1.0M 
[   ]270-blik-blik-2019-seznam-instalaci.pdf2019-03-13 13:06 1.0M 
[IMG]271-0002.jpg2019-03-19 11:36 1.3M 
[   ]272-blik2019-mapa.pdf2019-03-19 11:37 2.1M 
[IMG]273-0002.jpg2019-03-19 11:39 1.3M 
[   ]274-primestsky-tabor-prihlaska-2019-final.pdf2019-04-24 16:30 414K 
[   ]275-prihlaska-k-jednorazovemu-vstupu-2018.pdf2019-07-09 12:49 421K 
[   ]276-prihlaska-pro-clena-2018-final.pdf2019-07-09 12:50 419K 
[   ]277-prihlaska-ms-depo-fdu-nova.pdf2019-07-09 12:50 419K 
[   ]278-komplet-set-k-prihlasce-sdilene-dilny-2018.pdf2019-04-25 16:48 273K 
[   ]278-sdilene-dilny-2019-podminky-cenik.pdf2019-07-09 12:51 272K 
[   ]279-oznameni-o-vyberu-nejvhodnejsi-nabidky.pdf2019-05-06 12:00 823K 
[   ]280-inzerat-financni-administator-ka.pdf2019-05-06 14:02 95K 
[IMG]281-mapa-blik-2018-2.jpg2019-05-28 13:37 632K 
[IMG]282-mapa-blik-2018-1.jpg2019-05-28 13:38 602K 
[   ]283-inzerat-produkcni-depo2015.pdf2019-06-07 08:53 95K 
[   ]287-residence-cermak.pdf2019-06-12 09:30 3.4M 
[   ]290-peklo-pronajem-kancelari.pdf2019-06-25 11:00 1.8M 
[   ]291-menu-bistro-cafe-depo-1-7-7-2019.pdf2019-06-27 13:21 148K 
[   ]291-menu-bistro-cafe-depo-8-14-7-2019.pdf2019-07-08 12:55 151K 
[   ]291-menu-bistro-cafe-depo-15-19-7-2019.pdf2019-07-15 08:12 150K 
[   ]291-menu-bistro-cafe-depo-29-7-2-8-2019.pdf2019-07-29 08:17 151K 
[   ]292-inzerat-manager-ka-projektu-baroko.pdf2019-07-24 16:14 229K 
[   ]293-menu-bistro-cafe-depo-5-9-8-2019.pdf2019-07-29 08:19 150K 
[   ]294-menu-bistro-cafe-depo-2-8-9-2019.pdf2019-09-02 13:29 151K 
[   ]294-menu-bistro-cafe-depo-9-15-9-2019.pdf2019-09-08 20:18 152K 
[   ]294-menu-bistro-cafe-depo-16-22-9-2019.pdf2019-09-16 08:57 152K 
[   ]294-menu-bistro-cafe-depo-26-8-1-9-2019.pdf2019-08-25 21:16 150K 
[   ]294-menu-depo-19-25-8-2019.pdf2019-08-20 21:57 150K 
[   ]295-ja-hrdina-lektorsky-program.pdf2019-09-02 21:55 310K 
[   ]296-prg600x1750icon.pdf2019-09-13 15:14 131K 
[   ]296-program-naplavka-u-radbuzy-otevreni.pdf2019-09-09 11:11 131K 
[IMG]297-0001-2-.jpg2019-09-13 15:14 5.6M 
[IMG]297-0001.jpg2019-09-09 11:11 5.7M 
[   ]298-mapka-nalavka.pdf2019-09-13 10:11 1.0M 
[IMG]299-0001-1-.jpg2019-09-13 10:12 4.4M 
[   ]301-inzerat-kreativni-kuchar.pdf2019-09-30 11:21 93K 
[   ]302-inzerat-kreativni-kuchar.pdf2019-09-30 11:22 93K 
[   ]303-bm-plzen-oslavy-vzniku-republiky-program-a4-bez-orez.pdf2019-10-01 14:21 587K 
[   ]304-menu-bistro-cafe-depo-2-6-3-2020.pdf2020-03-02 22:08 246K 
[   ]304-menu-bistro-cafe-depo-2-6-12-2019.pdf2019-11-29 09:24 155K 
[   ]304-menu-bistro-cafe-depo-3-7-8-2020.pdf2020-08-03 20:06 214K 
[   ]304-menu-bistro-cafe-depo-3-9-2-2020.pdf2020-02-03 08:16 156K 
[   ]304-menu-bistro-cafe-depo-4-10-11-2019.pdf2019-11-04 13:28 156K 
[   ]304-menu-bistro-cafe-depo-6-10-1-2020.pdf2020-01-06 09:14 155K 
[   ]304-menu-bistro-cafe-depo-6-10-7-2020.pdf2020-07-07 08:45 224K 
[   ]304-menu-bistro-cafe-depo-7-13-10-2019.pdf2019-10-04 12:26 149K 
[   ]304-menu-bistro-cafe-depo-9-13-3-2020.pdf2020-03-08 13:51 245K 
[   ]304-menu-bistro-cafe-depo-9-13-12.pdf2019-12-09 12:59 151K 
[   ]304-menu-bistro-cafe-depo-10-16-2.pdf2020-02-11 12:59 224K 
[   ]304-menu-bistro-cafe-depo-11-15-11-2019.pdf2019-11-11 09:22 155K 
[   ]304-menu-bistro-cafe-depo-13-07-17-07-2020.pdf2020-07-13 08:07 223K 
[   ]304-menu-bistro-cafe-depo-13-19-1-2020.pdf2020-01-13 10:44 155K 
[   ]304-menu-bistro-cafe-depo-14-20-10-2019.pdf2019-10-18 09:27 152K 
[   ]304-menu-bistro-cafe-depo-15-19-6-2020.pdf2020-06-15 10:38 225K 
[   ]304-menu-bistro-cafe-depo-16-20-12-2019.pdf2019-12-16 13:04 155K 
[   ]304-menu-bistro-cafe-depo-17-23-2-2020.pdf2020-02-17 08:46 151K 
[   ]304-menu-bistro-cafe-depo-18-22-11-2019.pdf2019-11-18 13:14 156K 
[   ]304-menu-bistro-cafe-depo-20-01-2020-24-01-2020.pdf2020-01-20 08:38 223K 
[   ]304-menu-bistro-cafe-depo-20-24-7-2020.pdf2020-07-20 20:38 220K 
[   ]304-menu-bistro-cafe-depo-21-25-10-2019.pdf2019-10-21 13:21 159K 
[   ]304-menu-bistro-cafe-depo-22-26-6-2020.pdf2020-06-22 08:14 225K 
[   ]304-menu-bistro-cafe-depo-24-2-28-2-2020.pdf2020-02-24 07:56 223K 
[   ]304-menu-bistro-cafe-depo-25-29-11-2019.pdf2019-11-25 12:40 155K 
[   ]304-menu-bistro-cafe-depo-27-1-2-2-2020.pdf2020-01-27 09:43 222K 
[   ]304-menu-bistro-cafe-depo-28-10-1-11-2019.pdf2019-10-30 20:17 150K 
[   ]304-menu-bistro-cafe-depo-29-6-3-7-2020.pdf2020-06-29 09:39 214K 
[   ]307-specialista-komunikace.pdf2020-01-07 11:26 95K 
[   ]308-prg-a4.pdf2020-02-06 08:04 881K 
[   ]309--priloha-vyzvy-c-3a-zadost-naplavka-2020.docx2020-02-12 21:04 4.0K 
[   ]309-priloha-vyzvy-c-3a-zadost-naplavka-2020.docx2020-02-12 21:23 537K 
[   ]310--priloha-vyzvy-c-3b-zadost-naplavka-2020.docx2020-02-12 21:05 4.0K 
[   ]310-priloha-vyzvy-c-3b-zadost-naplavka-2020.docx2020-02-12 21:23 536K 
[   ]311--naplavka-2020-prezentace.pdf2020-02-12 21:05 4.0K 
[   ]312--naplavka-na-radbuze-manual.pdf2020-02-12 21:06 4.0K 
[   ]312-naplavka-na-radbuze-manual.pdf2020-02-12 21:25 170K 
[   ]313-graficky-planek-naplavky-vykresy.pdf2020-02-12 21:14 569K 
[   ]315-priloha-vyzvy-c-2-pokyny-pro-vyuctovani.pdf2020-02-12 21:30 99K 
[   ]316-vyhlaseni-naplavka-2020.pdf2020-02-12 21:32 185K 
[   ]317-naplavka-logo-modre.pdf2020-02-14 12:43 1.3M 
[   ]318-naplavka-logo-modre.ai2020-02-14 12:44 3.0M 
[   ]319-provozni-depo2015.pdf2020-02-17 14:44 95K 
[   ]320-barokni-magazin-2019-web.pdf2020-02-18 10:32 4.3M 
[   ]321-barokni-magazin-2018-web.pdf2020-02-18 10:33 3.2M 
[   ]322-depo-detsky-koutek-karticka-web.pdf2020-02-20 08:53 1.3M 
[   ]323-nabidka-workshopy-teambuildingy.pdf2020-02-25 09:27 779K 
[   ]327-primestsky-tabor-prihlaska-2020-termin-1.docx2020-03-11 14:10 67K 
[   ]329-primestsky-tabor-prihlaska-2020-termin-2.docx2020-03-11 14:23 68K 
[   ]331-manazer-ka-marketingu-a-komunikace.pdf2020-05-28 10:06 96K 
[IMG]336-naplavka-2020-logo.jpg2020-07-07 10:25 1.8M 
[   ]337-naplavka-2020-logo.pdf2020-07-07 10:27 1.3M 
[IMG]338-kulturni-plzen-logo.jpg2020-07-07 10:28 1.8M 
[   ]339-kulturni-plzen-logo.pdf2020-07-07 10:28 6.5K 
[   ]340-naplavka-2020-logomanual.pdf2020-07-07 10:29 1.3M 
[   ]341-depo2015-nabidka-prostor-2019.pptx2020-07-13 10:38 2.5M 
[   ]341-nabidka-workshopy-teambuildingy.pdf2020-07-13 10:58 779K 
[   ]343-social-media-specialist.pdf2020-08-12 16:54 95K 
[   ]346-krouzek-prihlaska-2020-21.docx2020-09-08 10:45 66K 
[   ]347-provozni-rad-sdilenych-dilen-depo2015.pdf2020-09-08 10:46 240K 
[   ]349-mapa-vikend-otevrenych-atelieru.pdf2020-09-17 16:48 2.0M 
[   ]353-tz-hudebni-ceny-zebrik-6-10-2020.docx2020-10-06 16:02 19K 
[   ]360-mapa-industrialni-stezka.pdf2020-11-19 13:58 1.0M 
[   ]361-baroko-2020-2-.pdf2020-11-24 09:01 2.3M 
[   ]363-31-20menu-20depo-207-11-12-2020.docx2020-12-07 08:14 89K 
[   ]364-asistent-ka-reditele-hr-manager-ka.pdf2020-12-15 08:45 1.0M 
[   ]365-depo-mapa-stezka-en-web.pdf2021-01-28 13:47 454K 
[   ]366-depo-mapa-stezka-de-web.pdf2021-01-28 13:48 459K 
[   ]367-mapa-industrialni-stezka.pdf2021-02-04 10:58 1.0M 
[   ]368-depo-mapa-stezka-en-web.pdf2021-02-04 10:59 454K 
[   ]369-depo-mapa-stezka-de-web.pdf2021-02-04 11:00 459K 
[   ]370-mapa-cz-compressed.pdf2021-03-03 08:53 1.6M 
[   ]371-map-en-compressed.pdf2021-03-03 08:53 1.6M 
[   ]372-karte-de-compressed.pdf2021-03-03 09:18 1.7M 
[   ]373-vyrocni-zprava-2018.docx2021-03-04 09:58 579K 
[   ]375-plzen-2015-vyrocni-zprava-a-ucetni-zaverka-2019-auditovana-compressed-1-.pdf2021-03-04 14:57 1.3M 
[   ]376-mapa-cz-compressed.pdf2021-03-05 10:39 1.6M 
[   ]377-map-en-compressed.pdf2021-03-05 10:40 1.6M 
[   ]378-karte-de-compressed.pdf2021-03-05 10:40 1.7M 
[   ]379-primestsky-tabor-prihlaska-2021.docx2021-04-19 15:22 68K 
[   ]380-prihlaska-na-krouzek-2020-21.docx2021-04-21 10:46 71K 
[   ]381-plzen-2015-evaluace-zprava-.pdf2021-06-22 11:33 2.3M 
[   ]381-primestsky-tabor-prihlaska-2021.docx2021-04-23 15:30 68K 
[IMG]382-eds-21-fb.jpg2021-05-12 11:54 1.4M 
[   ]383-v-ro-n-zpr-va-2020-plze-2015.pdf2021-07-15 14:38 2.0M 
[   ]384-mapa-cz-compressed.pdf2021-05-21 13:49 1.6M 
[   ]384-v-ro-n-zpr-va-2020-plze-2015.pdf2021-07-15 14:39 2.0M 
[   ]385-inzerat-produkcni-depo2015.docx2021-05-24 13:38 76K 
[   ]385-prihlaska-krouzek-podzim-2021-depo2015.docx2021-08-16 10:31 67K 
[IMG]386-rem-krouzek-letak-a5-2021-01.jpg2021-08-16 10:38 498K 
[   ]387-prihlaska-krouzek-podzim-2021-depo2015.docx2021-08-25 16:54 67K 
[   ]388-inzerat-produkcni-depo2015.docx2021-05-26 15:21 76K 
[IMG]388-rem-krouzek-letak-a5-2021-01.jpg2021-08-25 16:54 498K 
[   ]391-remeslny-atelier-provozni-rad.pdf2021-08-25 21:21 56K 
[IMG]393-rem-krouzek-2-letak-a5-2021-01.jpg2021-08-31 23:16 516K 
[   ]395-inzerat-kuchar-depo2015.pdf2021-09-10 13:45 229K 
[   ]396-inzerat-provozni-manazer-gastro-depo2015.pdf2021-11-04 14:49 218K 
[   ]397-tz-plzen-design-week-final.docx2021-12-06 08:57 152K 
[   ]399-tz-plzen-design-week-final.docx2021-12-06 08:58 152K 
[   ]400-tz-blik-blik-mini-2021.docx2021-12-06 08:58 433K 
[   ]401-depo2015-obecny-letak.pdf2021-12-06 09:02 1.4M 
[   ]402-tz-frantisek-listopad.docx2021-12-06 09:09 1.6M 
[   ]403-tz-depo2015-blik-blik-tajuplny-les-prodlouzeni.docx2021-12-06 09:09 63K 
[   ]404-tz-open-call-wallz-2022-mensi.docx2021-12-06 14:03 71K 
[   ]405-kuchar-depo2015.pdf2022-01-04 14:46 226K 
[   ]406-kuchar-depo2015.pdf2022-01-04 14:47 226K 
[   ]408-nabidka-pronajmu-kancelare-a-ateliery.docx2022-01-06 10:55 73K 
[   ]410-spravce-depo2015-1.pdf2022-01-06 15:51 218K 
[   ]412-pronajem-skleniku-.docx2022-01-11 12:25 73K 
[IMG]416-kuk-fb-banner-s-programem-mensi-na-web.jpg2022-02-17 09:13 216K 
[IMG]417-mapa-web.jpg2022-03-11 11:20 640K 
[   ]420-depo-primestsky-tabor-prihlaska-2022.docx2022-03-15 11:01 68K 
[   ]421-depo-primestsky-tabor-prihlaska-2022.docx2022-03-15 11:03 68K 
[   ]422-program-treffpunkt-2022.pdf2022-03-18 14:27 172K 
[   ]423-blik-2022-map-dl-en.pdf2022-03-24 12:39 1.9M 
[   ]424-blik-2022-letak-mapa-final.pdf2022-03-24 12:50 1.9M 
[   ]425-new-v4-digital-art-melting-pot-open-call-ext.pdf2022-03-28 15:14 319K 
[   ]426-new-v4-digital-art-melting-pot-open-call-ext.pdf2022-03-30 16:02 319K 
[   ]427-new-v4-digital-art-melting-pot-open-call-ext.pdf2022-03-30 15:56 319K 
[   ]428-schiesslhaus-air-open-call-cz-bav.pdf2022-04-07 14:36 218K 
[   ]429-inzerat-barman-ka-depo2015.pdf2022-04-25 15:46 220K 
[   ]430-o-zahrade-dl-letak-s-programem.pdf2022-04-26 14:51 1.2M 

Apache/2.4.38 (Debian) Server at depo2015.cz Port 443